Content
SEND FEEDBACK

Daily
Averages
Monthly
Summary
Mexico

COZUMEL, QUINTANA ROO


Home > North America > Mexico > Quintana Roo
Elevation: 15 feet     Latitude: 20 31N     Longitude: 086 56W

WEATHER
 
SELECT A DAY
Number of Records: 124,476;   Date Range: 1/1/95 - 7/11/14
 
SHARE

PRINT THIS DATA

[ ← Previous Day ]
WEATHER ALMANAC - OCTOBER 5, 2013
[ Next Day → ]
[ °C ]   °F
Weather ElementAverageHighLow
Temperature76.4 °F86 °F (1:47 pm)69.8 °F (2:41 am)
Dewpoint72.8 °F75.2 °F (8:45 am)69.8 °F (2:41 am)
Humidity89.6 %100 % (1:47 am)66 % (1:47 pm)
Barometer29.92 in29.98 in (9:42 am)29.87 in (4:40 pm)
Wind Speed4.4 mph11.5 mph (2:50 pm)
Weather ElementAverage
Visibility7.5 mi
Wind DirectionENE (68.3 °)

Weather ElementTotal
Precipitation---
Cooling Degree Days12.9 (Base 65)
Growing Degree Days27.9 (Base 50)
Averaged from 23 records on October 5, 2013
WEATHER CONDITIONS BREAKOUT
WIND DIRECTION BREAKOUT
WEATHER BY HOUR - OCTOBER 5, 2013
[ °C ]   °F
Local TimeTemperatureDewpointHumidityBarometerVisibilityWind DirectionWind SpeedGust SpeedPrecipitationEventsConditions
1:47 AM71.6 °F71.6 °F100 %29.94 in7.0 miESE (110°)3.5 mphPartly Cloudy
2:41 AM69.8 °F69.8 °F100 %29.91 in7.0 miCalmPartly Cloudy
3:45 AM69.8 °F69.8 °F100 %29.93 in7.0 miCalmPartly Cloudy
4:42 AM69.8 °F69.8 °F100 %29.90 in7.0 miCalmPartly Cloudy
5:42 AM69.8 °F69.8 °F100 %29.89 in7.0 miCalmPartly Cloudy
6:40 AM69.8 °F69.8 °F100 %29.90 in7.0 miCalmScattered Clouds
7:40 AM71.6 °F71.6 °F100 %29.93 in8.0 miCalmMostly Cloudy
8:45 AM77.0 °F75.2 °F94 %29.94 in8.0 miEast (90°)4.6 mphMostly Cloudy
9:42 AM80.6 °F75.2 °F84 %29.98 in8.0 miEast (100°)5.8 mphMostly Cloudy
10:43 AM82.4 °F75.2 °F79 %29.95 in8.0 miEast (100°)9.2 mphMostly Cloudy
11:42 AM82.4 °F75.2 °F79 %29.94 in8.0 miENE (70°)6.9 mphMostly Cloudy
12:46 PM82.4 °F75.2 °F79 %29.91 in8.0 miEast (90°)6.9 mphMostly Cloudy
1:47 PM86.0 °F73.4 °F66 %29.90 in8.0 miESE (120°)9.2 mphScattered Clouds
2:50 PM84.2 °F73.4 °F70 %29.89 in8.0 miSE (130°)11.5 mphScattered Clouds
3:46 PM84.2 °F75.2 °F74 %29.91 in8.0 miEast (100°)5.8 mphMostly Cloudy
4:40 PM82.4 °F73.4 °F74 %29.87 in8.0 miESE (110°)11.5 mphScattered Clouds
5:43 PM80.6 °F73.4 °F79 %29.88 in8.0 miESE (110°)11.5 mphPartly Cloudy
6:43 PM77.0 °F73.4 °F89 %29.88 in8.0 miEast (100°)4.6 mphScattered Clouds
7:41 PM75.2 °F73.4 °F94 %29.91 in7.0 miESE (120°)3.5 mphClear
8:42 PM73.4 °F73.4 °F100 %29.93 in7.0 miESE (110°)3.5 mphPartly Cloudy
9:49 PM73.4 °F73.4 °F100 %29.97 in7.0 miESE (110°)3.5 mphPartly Cloudy
10:50 PM71.6 °F71.6 °F100 %29.94 in7.0 miCalmPartly Cloudy
11:52 PM71.6 °F71.6 °F100 %29.94 in7.0 miCalmPartly Cloudy
Hourly data recorded from MMCZ, located miles away from Cozumel, Quintana Roo







STORIES FROM OUR PARTNERS